Time,TemperatureF,DewpointF,PressureIn,WindDirection,WindDirectionDegrees,WindSpeedMPH,WindSpeedGustMPH,Humidity,HourlyPrecipIn,Conditions,Clouds,dailyrainin,SolarRadiationWatts/m^2,SoftwareType,DateUTC
2013-04-14 21:39:00,52.7,42.0,30.16,South,183,0.0,4.0,67,0.00,,,0.00,0,Wunderground v.1.15,2013-04-15 01:39:00,
2013-04-14 21:43:00,52.7,42.0,30.16,South,183,0.0,4.0,67,0.00,,,0.00,0,Wunderground v.1.15,2013-04-15 01:43:00,
2013-04-14 21:45:00,52.6,41.9,30.16,South,183,0.0,4.0,67,0.00,,,0.00,0,Wunderground v.1.15,2013-04-15 01:45:00,
2013-04-14 21:51:00,52.5,41.9,30.16,South,183,0.0,0.0,67,0.00,,,0.00,0,Wunderground v.1.15,2013-04-15 01:51:00,
2013-04-14 21:53:00,52.5,41.9,30.16,South,183,0.0,0.0,67,0.00,,,0.00,0,Wunderground v.1.15,2013-04-15 01:53:00,
2013-04-14 22:00:00,52.5,42.2,30.16,South,183,0.0,0.0,68,0.00,,,0.00,0,Wunderground v.1.15,2013-04-15 02:00:00,
2013-04-14 22:05:00,52.3,42.4,30.16,South,183,0.0,0.0,69,0.00,,,0.00,0,Wunderground v.1.15,2013-04-15 02:05:00,
2013-04-14 22:11:00,52.0,42.9,30.16,South,183,0.0,0.0,71,0.00,,,0.00,0,Wunderground v.1.15,2013-04-15 02:11:00,
2013-04-14 22:17:00,51.6,41.8,30.16,South,183,0.0,0.0,69,0.00,,,0.00,0,Wunderground v.1.15,2013-04-15 02:17:00,
2013-04-14 22:23:00,51.5,42.4,30.15,South,183,0.0,0.0,71,0.00,,,0.00,0,Wunderground v.1.15,2013-04-15 02:23:00,
2013-04-14 22:29:00,51.2,42.1,30.15,South,183,0.0,0.0,71,0.00,,,0.00,0,Wunderground v.1.15,2013-04-15 02:29:00,
2013-04-14 22:35:00,51.0,41.9,30.15,South,183,0.0,0.0,71,0.00,,,0.00,0,Wunderground v.1.15,2013-04-15 02:35:00,
2013-04-14 22:41:00,50.9,42.2,30.14,South,183,0.0,0.0,72,0.00,,,0.00,0,Wunderground v.1.15,2013-04-15 02:41:00,
2013-04-14 22:47:00,50.6,41.9,30.14,South,183,0.0,0.0,72,0.00,,,0.00,0,Wunderground v.1.15,2013-04-15 02:47:00,
2013-04-14 22:53:00,50.4,41.7,30.14,South,183,0.0,0.0,72,0.00,,,0.00,0,Wunderground v.1.15,2013-04-15 02:53:00,
2013-04-14 23:00:00,50.3,41.6,30.13,South,183,0.0,0.0,72,0.00,,,0.00,0,Wunderground v.1.15,2013-04-15 03:00:00,
2013-04-14 23:05:00,50.2,41.5,30.13,South,183,0.0,0.0,72,0.00,,,0.00,0,Wunderground v.1.15,2013-04-15 03:05:00,
2013-04-14 23:11:00,49.9,42.3,30.13,South,183,0.0,0.0,75,0.00,,,0.00,0,Wunderground v.1.15,2013-04-15 03:11:00,
2013-04-14 23:17:00,49.7,42.1,30.13,South,183,0.0,0.0,75,0.00,,,0.00,0,Wunderground v.1.15,2013-04-15 03:17:00,
2013-04-14 23:23:00,49.5,41.9,30.13,South,183,0.0,0.0,75,0.00,,,0.00,0,Wunderground v.1.15,2013-04-15 03:23:00,
2013-04-14 23:29:00,49.3,41.7,30.12,South,183,0.0,0.0,75,0.00,,,0.00,0,Wunderground v.1.15,2013-04-15 03:29:00,
2013-04-14 23:35:00,49.3,41.7,30.13,South,183,0.0,0.0,75,0.00,,,0.00,0,Wunderground v.1.15,2013-04-15 03:35:00,
2013-04-14 23:43:00,49.2,42.0,30.13,South,183,0.0,0.0,76,0.00,,,0.00,0,Wunderground v.1.15,2013-04-15 03:43:00,
2013-04-14 23:49:00,49.1,42.2,30.13,South,183,0.0,0.0,77,0.00,,,0.00,0,Wunderground v.1.15,2013-04-15 03:49:00,
2013-04-14 23:55:00,49.1,42.2,30.13,South,183,0.0,0.0,77,0.00,,,0.00,0,Wunderground v.1.15,2013-04-15 03:55:00,